User: anonymous   Login
Location: Moscow
(55.7500°N, 37.5830°E)
Time: 00:03:29
(UTC+03:00)
Language:

Vanguard 1 Rocket - Orbit

View from above orbital plane
View from above orbital plane
View from above satellite
View from above satellite

Ground track
Ground track

The orbit data is extracted from the following two-line orbital elements,

1 00016U 58002A   22274.29585962 -.00000041  00000-0 -59113-4 0  9995
2 00016  34.2616 261.0243 2027074 162.2823 206.0405 10.48816641546590
Epoch (UTC): 01 October 2022 07:06:02
Eccentricity: 0.2027074
inclination: 34.2616°
perigee height: 651 km
apogee height: 4225 km
right ascension of ascending node: 261.0243°
argument of perigee: 162.2823°
revolutions per day: 10.48816641
mean anomaly at epoch: 206.0405°
orbit number at epoch: 54659

The dashed part of the orbit path shows where the satellite is in the earth's shadow,  

DLR